Location: Ferintosh
(52.7647°N, 112.9692°W)
Time: 15:01:48
(UTC+00:00)

Transit 2A Rocket - Pass Details

Date: 24 May 2024
Orbit: 583 x 910 km, 66.7° (Epoch: 14 June)

Event Time Altitude Azimuth Distance (km) Brightness Sun altitude
Rises 17:15:01 0° 317° (NW) 3,328 7.9 49.1°
Reaches altitude 10° 17:17:38 10° 327° (NNW) 2,444 7.3 49.4°
Maximum altitude 17:22:47 34° 31° (NNE) 1,411 6.7 50.0°
Drops below altitude 10° 17:28:11 10° 95° (E) 2,574 8.4 50.7°
Sets 17:31:00 0° 105° (ESE) 3,530 8.9 51.0°
